This demonstration page uses our WeatherBlox Daily Observations layout. Learn more.

Left ArrowRight Arrow

Hourly Observations for March 25, 2018

Temp ( °F °C ) Dew Point ( °F °C ) Humidity (%) Winds ( mph kmh ) Pressure ( in mb ) Visibility ( mi km ) Precip ( " mm )
12:53 am 00:53 Partly Cloudy 70 21.1 52 11.1 53 53 NE 9 15 29.85 1011 10 16 0.00 0.00
1:53 am 01:53 Mostly Clear 71 21.7 48 8.9 44 44 ENE 13 20 29.86 1011 10 16 0.00 0.00
2:53 am 02:53 Partly Cloudy 69 20.6 49 9.4 49 49 ENE 10 17 29.85 1011 10 16 0.00 0.00
3:53 am 03:53 Partly Cloudy 68 20 49 9.4 51 51 ENE 10 17 29.84 1010 9 14 0.00 0.00
4:53 am 04:53 Partly Cloudy 67 19.4 50 10 55 55 E 12 19 29.83 1010 10 16 0.00 0.00
5:53 am 05:53 Mostly Cloudy 65 18.3 52 11.1 63 63 ESE 7 11 29.85 1011 10 16 0.00 0.00
6:08 am 06:08 Mostly Cloudy 64 18 54 12 68 68 SE 6 9 29.88 1012 9 14 0.00 0.00
6:33 am 06:33 Cloudy 66 18.9 54 12.2 65 65 ESE 5 7 29.85 1011 9 14 0.00 0.00
6:53 am 06:53 Cloudy 66 18.9 55 12.8 68 68 SE 6 9 29.86 1011 9 14 0.00 0.00
7:07 am 07:07 Cloudy 66 18.9 57 13.9 73 73 SE 8 13 29.85 1011 9 14 0.00 0.00
7:53 am 07:53 Cloudy with Mist and Fog 67 19.4 64 17.8 91 91 SSE 7 11 29.88 1012 5 8 0.00 0.00
8:19 am 08:19 Cloudy with Mist and Fog 67 19.4 65 18.3 93 93 SSE 8 13 29.88 1012 3 4 0.00 0.00
8:53 am 08:53 Cloudy with Mist and Fog 69 20.6 66 18.9 90 90 SE 9 15 29.88 1012 3 5 0.00 0.00
9:14 am 09:14 Cloudy with Mist and Fog 69 20.6 66 18.9 90 90 SSE 8 13 29.88 1012 4 6 0.00 0.00
9:53 am 09:53 Cloudy with Mist and Fog 70 21.1 67 19.4 90 90 SSE 8 13 29.90 1012 5 8 0.00 0.00
10:33 am 10:33 Cloudy 71 21.7 67 19.4 87 87 S 10 17 29.88 1012 10 16 0.00 0.00
10:53 am 10:53 Cloudy 72 22.2 67 19.4 84 84 S 12 19 29.90 1012 10 16 0.00 0.00
11:53 am 11:53 Cloudy 73 22.8 67 19.4 81 81 S 12 19 29.88 1012 10 16 0.00 0.00
12:53 pm 12:53 Cloudy 74 23.3 67 19.4 79 79 S 15 24 29.87 1012 10 16 0.00 0.00
1:53 pm 13:53 Cloudy 74 23.3 66 18.9 76 76 S 16 26 29.84 1011 10 16 0.00 0.00
2:09 pm 14:09 Cloudy 74 23.3 66 18.9 76 76 SSE 18 30 29.83 1010 10 16 0.00 0.00
2:53 pm 14:53 Cloudy 75 23.9 66 18.9 74 74 SSE 15 24 29.81 1010 10 16 0.00 0.00
3:53 pm 15:53 Cloudy 76 24.4 66 18.9 72 72 SSE 20 31 29.80 1009 10 16 0.00 0.00
4:53 pm 16:53 Cloudy 75 23.9 66 18.9 74 74 SSE 14 22 29.79 1009 10 16 0.00 0.00
5:53 pm 17:53 Cloudy 75 23.9 67 19.4 76 76 SSE 17 28 29.79 1009 10 16 0.00 0.00
6:35 pm 18:35 Cloudy 75 23.9 66 18.9 74 74 SSE 16 26 29.77 1008 10 16 0.00 0.00
6:53 pm 18:53 Cloudy 75 23.9 66 18.9 74 74 SSE 15 24 29.78 1009 10 16 0.00 0.00
7:53 pm 19:53 Mostly Cloudy 74 23.3 66 18.9 76 76 SE 14 22 29.79 1009 10 16 0.00 0.00
8:53 pm 20:53 Cloudy 75 23.9 66 18.9 74 74 SSE 16 26 29.80 1009 10 16 0.00 0.00
9:53 pm 21:53 Cloudy 74 23.3 66 18.9 76 76 SE 17 28 29.83 1010 10 16 0.00 0.00
10:53 pm 22:53 Cloudy 73 22.8 66 18.9 79 79 ESE 12 19 29.83 1010 10 16 0.00 0.00
11:53 pm 23:53 Cloudy 73 22.8 66 18.9 79 79 SE 14 22 29.83 1010 10 16 0.00 0.00

Powered by AerisWeather